ITY1156 LICR-LIRF

Flight info

Callsign ITY1156
Flight time 1h 3m
Altitude 18000
Route RCA Q58 LONDA Z854 BAGIX/N0449F380 DCT SOR DCT TEA DCT SIPRO/N0382F180 Z803 LAT
Aircraft A20N/M-SDE2E3FGHIRWXY/LB1

Departure

Time 2026-05-05 19:57
Airport Reggio Calabria Airport (LICR)

Arrival

Time 2026-05-05 21:01
Airport Rome–Fiumicino Leonardo da Vinci International Airport (LIRF)
Time Latitude Longitude Altitude Speed Heading
2026-05-05 19:28 38.07254 15.65365 64 ft 0 kts 124°
2026-05-05 19:45 38.07257 15.65360 64 ft 1 kts 124°
2026-05-05 19:45 38.07262 15.65343 64 ft 2 kts 91°
2026-05-05 19:46 38.07260 15.65324 64 ft 2 kts 63°
2026-05-05 19:46 38.07251 15.65310 64 ft 2 kts 34°
2026-05-05 19:46 38.07237 15.65303 63 ft 2 kts
2026-05-05 19:46 38.07223 15.65305 63 ft 0 kts 337°
2026-05-05 19:47 38.07217 15.65309 63 ft 1 kts 329°
2026-05-05 19:47 38.07215 15.65310 63 ft 0 kts 332°
2026-05-05 19:51 38.07216 15.65310 63 ft 0 kts 332°
2026-05-05 19:52 38.07240 15.65300 63 ft 6 kts 345°
2026-05-05 19:52 38.07304 15.65268 65 ft 11 kts 334°
2026-05-05 19:52 38.07324 15.65193 66 ft 11 kts 242°
2026-05-05 19:52 38.07307 15.65154 65 ft 0 kts 243°
2026-05-05 19:53 38.07305 15.65147 65 ft 3 kts 243°
2026-05-05 19:53 38.07286 15.65098 65 ft 10 kts 248°
2026-05-05 19:53 38.07336 15.65013 66 ft 16 kts 331°
2026-05-05 19:53 38.07453 15.64934 69 ft 21 kts 338°
2026-05-05 19:54 38.07609 15.64842 73 ft 28 kts 332°
2026-05-05 19:54 38.07805 15.64713 79 ft 32 kts 337°
2026-05-05 19:54 38.07998 15.64600 84 ft 28 kts 334°
2026-05-05 19:54 38.08144 15.64514 88 ft 9 kts 341°
2026-05-05 19:55 38.08157 15.64469 89 ft 7 kts 160°
2026-05-05 19:55 38.08102 15.64519 87 ft 11 kts 152°
2026-05-05 19:55 38.08017 15.64577 85 ft 15 kts 152°
2026-05-05 19:55 38.07960 15.64612 83 ft 0 kts 152°
2026-05-05 19:56 38.07959 15.64613 83 ft 1 kts 152°
2026-05-05 19:56 38.07958 15.64613 83 ft 0 kts 152°
2026-05-05 19:56 38.07799 15.64719 79 ft 65 kts 153°
2026-05-05 19:56 38.07175 15.65124 63 ft 134 kts 152°
2026-05-05 19:57 38.06246 15.65749 382 ft 159 kts 156°
2026-05-05 19:57 38.05152 15.66133 937 ft 170 kts 176°
2026-05-05 19:57 38.03978 15.65951 1572 ft 178 kts 206°
2026-05-05 19:57 38.03077 15.64895 2150 ft 186 kts 243°
2026-05-05 19:58 38.02798 15.63298 2782 ft 190 kts 265°
2026-05-05 19:58 38.02305 15.61772 3465 ft 193 kts 228°
2026-05-05 19:58 38.01206 15.60799 4051 ft 201 kts 199°
2026-05-05 19:58 37.99820 15.60404 4696 ft 207 kts 199°
2026-05-05 19:59 37.98489 15.59586 5193 ft 222 kts 206°
2026-05-05 19:59 37.96986 15.58850 5665 ft 241 kts 198°
2026-05-05 19:59 37.95394 15.58278 6490 ft 244 kts 195°
2026-05-05 19:59 37.93758 15.57700 7340 ft 244 kts 205°
2026-05-05 20:00 37.92238 15.56796 8224 ft 244 kts 207°
2026-05-05 20:00 37.90648 15.56009 9063 ft 247 kts 202°
2026-05-05 20:00 37.89061 15.55272 10005 ft 243 kts 207°
2026-05-05 20:00 37.87568 15.54407 10895 ft 239 kts 204°
2026-05-05 20:01 37.85935 15.54115 11637 ft 248 kts 174°
2026-05-05 20:01 37.84302 15.55023 12147 ft 268 kts 141°
2026-05-05 20:01 37.83207 15.56935 12728 ft 280 kts 110°
2026-05-05 20:01 37.82972 15.59370 13392 ft 284 kts 79°
2026-05-05 20:02 37.83686 15.61688 13967 ft 288 kts 51°
2026-05-05 20:02 37.85122 15.63459 14451 ft 295 kts 32°
2026-05-05 20:02 37.86887 15.64772 15043 ft 299 kts 20°
2026-05-05 20:02 37.88911 15.65329 15659 ft 298 kts
2026-05-05 20:03 37.91000 15.65454 16121 ft 309 kts 358°
2026-05-05 20:03 37.93180 15.65513 16609 ft 320 kts 357°
2026-05-05 20:03 37.95423 15.65524 17158 ft 327 kts 356°
2026-05-05 20:03 37.97703 15.65461 17693 ft 334 kts 353°
2026-05-05 20:04 38.00054 15.65159 18227 ft 340 kts 349°
2026-05-05 20:04 38.02439 15.64899 18789 ft 349 kts 359°
2026-05-05 20:04 38.04862 15.65126 19343 ft 354 kts 357°
2026-05-05 20:04 38.07312 15.64790 19908 ft 354 kts 342°
2026-05-05 20:05 38.09613 15.63768 20519 ft 353 kts 332°
2026-05-05 20:05 38.11845 15.62405 20986 ft 361 kts 334°
2026-05-05 20:05 38.14233 15.61172 21222 ft 376 kts 336°
2026-05-05 20:05 38.16729 15.59961 21452 ft 389 kts 336°
2026-05-05 20:06 38.19274 15.58713 21714 ft 400 kts 336°
2026-05-05 20:06 38.21898 15.57406 22185 ft 405 kts 336°
2026-05-05 20:06 38.24500 15.56115 22742 ft 408 kts 338°
2026-05-05 20:06 38.27251 15.55067 23303 ft 412 kts 344°
2026-05-05 20:07 38.30065 15.54397 23840 ft 417 kts 349°
2026-05-05 20:07 38.32966 15.54063 24354 ft 421 kts 353°
2026-05-05 20:07 38.35912 15.53835 24854 ft 424 kts 353°
2026-05-05 20:07 38.38837 15.53630 25333 ft 427 kts 353°
2026-05-05 20:08 38.41811 15.53419 25811 ft 430 kts 353°
2026-05-05 20:08 38.44799 15.53203 26264 ft 432 kts 353°
2026-05-05 20:08 38.47819 15.52981 26707 ft 435 kts 353°
2026-05-05 20:08 38.50817 15.52758 27147 ft 437 kts 353°
2026-05-05 20:09 38.53875 15.52529 27574 ft 439 kts 353°
2026-05-05 20:09 38.56935 15.52303 27956 ft 441 kts 353°
2026-05-05 20:09 38.60001 15.52080 28323 ft 443 kts 353°
2026-05-05 20:09 38.63056 15.51862 28673 ft 445 kts 353°
2026-05-05 20:10 38.66172 15.51636 28999 ft 447 kts 353°
2026-05-05 20:10 38.69257 15.51410 29339 ft 448 kts 353°
2026-05-05 20:10 38.72361 15.51180 29773 ft 446 kts 353°
2026-05-05 20:10 38.75454 15.50949 30222 ft 444 kts 353°
2026-05-05 20:11 38.78509 15.50719 30623 ft 442 kts 353°
2026-05-05 20:11 38.81606 15.50483 30976 ft 442 kts 353°
2026-05-05 20:11 38.84636 15.50254 31301 ft 441 kts 353°
2026-05-05 20:11 38.87709 15.50023 31612 ft 441 kts 353°
2026-05-05 20:12 38.90780 15.49741 31881 ft 441 kts 351°
2026-05-05 20:12 38.93808 15.49224 32120 ft 440 kts 347°
2026-05-05 20:12 38.96805 15.48443 32335 ft 439 kts 343°
2026-05-05 20:12 38.99753 15.47401 32536 ft 439 kts 339°
2026-05-05 20:13 39.02605 15.46115 32765 ft 438 kts 335°
2026-05-05 20:13 39.05403 15.44571 32988 ft 437 kts 332°
2026-05-05 20:13 39.08098 15.42809 33040 ft 436 kts 329°
2026-05-05 20:14 39.13438 15.39045 33056 ft 436 kts 328°
2026-05-05 20:14 39.18709 15.35304 33059 ft 436 kts 328°
2026-05-05 20:15 39.24049 15.31482 33058 ft 436 kts 327°
2026-05-05 20:15 39.29360 15.27673 33059 ft 435 kts 327°
2026-05-05 20:16 39.34634 15.23893 33057 ft 435 kts 327°
2026-05-05 20:16 39.39930 15.20099 33059 ft 437 kts 327°
2026-05-05 20:17 39.45240 15.16291 33058 ft 436 kts 327°
2026-05-05 20:17 39.50522 15.12496 33058 ft 436 kts 327°
2026-05-05 20:18 39.55853 15.08659 33058 ft 436 kts 327°
2026-05-05 20:18 39.61154 15.04836 33059 ft 436 kts 327°
2026-05-05 20:19 39.66433 15.01024 33060 ft 436 kts 327°
2026-05-05 20:19 39.71709 14.97206 33056 ft 436 kts 327°
2026-05-05 20:20 39.77018 14.93358 33058 ft 436 kts 327°
2026-05-05 20:20 39.82297 14.89525 33058 ft 435 kts 327°
2026-05-05 20:21 39.87558 14.85695 33059 ft 436 kts 327°
2026-05-05 20:21 39.92851 14.81837 33059 ft 435 kts 327°
2026-05-05 20:22 39.98102 14.78005 33059 ft 435 kts 327°
2026-05-05 20:22 40.03363 14.74157 33057 ft 435 kts 327°
2026-05-05 20:23 40.08652 14.70280 33057 ft 435 kts 327°
2026-05-05 20:23 40.13956 14.66399 33057 ft 436 kts 327°
2026-05-05 20:24 40.19241 14.62530 33057 ft 437 kts 327°
2026-05-05 20:24 40.24541 14.58631 33059 ft 437 kts 327°
2026-05-05 20:25 40.29809 14.54743 33060 ft 436 kts 327°
2026-05-05 20:25 40.35088 14.50834 33061 ft 437 kts 327°
2026-05-05 20:26 40.40365 14.46919 33063 ft 437 kts 327°
2026-05-05 20:26 40.45634 14.42998 33065 ft 437 kts 327°
2026-05-05 20:27 40.50929 14.39047 33063 ft 437 kts 327°
2026-05-05 20:27 40.56221 14.35166 33063 ft 438 kts 329°
2026-05-05 20:28 40.61779 14.31824 33067 ft 440 kts 333°
2026-05-05 20:28 40.67486 14.28901 32768 ft 441 kts 334°
2026-05-05 20:28 40.70366 14.27447 32492 ft 439 kts 334°
2026-05-05 20:29 40.73203 14.26015 32218 ft 436 kts 334°
2026-05-05 20:29 40.76031 14.24584 31944 ft 434 kts 334°
2026-05-05 20:29 40.78814 14.23172 31676 ft 434 kts 334°
2026-05-05 20:29 40.81657 14.21730 31405 ft 434 kts 334°
2026-05-05 20:30 40.84464 14.20303 31133 ft 434 kts 334°
2026-05-05 20:30 40.87261 14.18880 30866 ft 434 kts 334°
2026-05-05 20:30 40.90078 14.17444 30598 ft 434 kts 334°
2026-05-05 20:30 40.92903 14.16003 30337 ft 434 kts 333°
2026-05-05 20:31 40.95723 14.14563 30075 ft 434 kts 333°
2026-05-05 20:31 40.98527 14.13129 29811 ft 435 kts 333°
2026-05-05 20:31 41.01347 14.11684 29551 ft 437 kts 333°
2026-05-05 20:31 41.04183 14.10230 29282 ft 438 kts 334°
2026-05-05 20:32 41.07017 14.08777 29025 ft 439 kts 334°
2026-05-05 20:32 41.09864 14.07315 28763 ft 438 kts 334°
2026-05-05 20:32 41.12723 14.05853 28499 ft 438 kts 334°
2026-05-05 20:32 41.15575 14.04396 28234 ft 436 kts 334°
2026-05-05 20:33 41.18380 14.02958 27977 ft 435 kts 334°
2026-05-05 20:33 41.21216 14.01494 27714 ft 433 kts 333°
2026-05-05 20:33 41.23935 13.99823 27453 ft 429 kts 328°
2026-05-05 20:33 41.26503 13.97829 27191 ft 425 kts 322°
2026-05-05 20:34 41.28867 13.95566 26935 ft 421 kts 317°
2026-05-05 20:34 41.31049 13.93033 26677 ft 418 kts 313°
2026-05-05 20:34 41.33051 13.90230 26416 ft 414 kts 307°
2026-05-05 20:34 41.34821 13.87244 26160 ft 411 kts 303°
2026-05-05 20:35 41.36444 13.84141 26082 ft 411 kts 301°
2026-05-05 20:35 41.38055 13.80982 26075 ft 411 kts 301°
2026-05-05 20:35 41.39660 13.77830 26070 ft 412 kts 301°
2026-05-05 20:35 41.41265 13.74692 26069 ft 412 kts 301°
2026-05-05 20:36 41.42826 13.71515 26060 ft 411 kts 297°
2026-05-05 20:36 41.44084 13.68136 26063 ft 408 kts 290°
2026-05-05 20:36 41.45002 13.64541 26066 ft 406 kts 283°
2026-05-05 20:36 41.45584 13.60884 26026 ft 403 kts 279°
2026-05-05 20:37 41.46063 13.57241 25457 ft 403 kts 278°
2026-05-05 20:37 41.46527 13.53563 24388 ft 410 kts 278°
2026-05-05 20:37 41.46999 13.49789 23382 ft 414 kts 278°
2026-05-05 20:37 41.47469 13.46030 22646 ft 413 kts 278°
2026-05-05 20:38 41.47937 13.42300 22005 ft 409 kts 278°
2026-05-05 20:38 41.48403 13.38568 21411 ft 405 kts 278°
2026-05-05 20:38 41.48857 13.34932 20845 ft 400 kts 278°
2026-05-05 20:38 41.49316 13.31245 20286 ft 396 kts 277°
2026-05-05 20:39 41.49760 13.27665 19742 ft 392 kts 277°
2026-05-05 20:39 41.50201 13.24109 19219 ft 388 kts 277°
2026-05-05 20:39 41.50633 13.20605 18691 ft 384 kts 277°
2026-05-05 20:39 41.51062 13.17118 18155 ft 381 kts 277°
2026-05-05 20:40 41.51488 13.13649 17652 ft 377 kts 278°
2026-05-05 20:40 41.51906 13.10236 17140 ft 374 kts 277°
2026-05-05 20:40 41.52324 13.06809 16650 ft 370 kts 278°
2026-05-05 20:40 41.52725 13.03518 16491 ft 357 kts 278°
2026-05-05 20:41 41.53119 13.00295 16359 ft 343 kts 277°
2026-05-05 20:41 41.53491 12.97233 16244 ft 329 kts 278°
2026-05-05 20:41 41.54168 12.94280 15988 ft 352 kts 297°
2026-05-05 20:41 41.55801 12.91769 15756 ft 369 kts 317°
2026-05-05 20:42 41.57835 12.89615 15509 ft 372 kts 320°
2026-05-05 20:42 41.59867 12.87502 15264 ft 371 kts 319°
2026-05-05 20:42 41.61876 12.85368 15020 ft 370 kts 319°
2026-05-05 20:42 41.63885 12.83185 14773 ft 368 kts 318°
2026-05-05 20:43 41.65841 12.81030 14530 ft 366 kts 318°
2026-05-05 20:43 41.67790 12.78860 14287 ft 365 kts 318°
2026-05-05 20:43 41.69740 12.76677 14042 ft 364 kts 318°
2026-05-05 20:43 41.71659 12.74518 13798 ft 363 kts 318°
2026-05-05 20:44 41.73588 12.72343 13552 ft 361 kts 318°
2026-05-05 20:44 41.75514 12.70168 13305 ft 361 kts 317°
2026-05-05 20:44 41.77428 12.68002 13056 ft 360 kts 318°
2026-05-05 20:44 41.79327 12.65850 12806 ft 359 kts 318°
2026-05-05 20:45 41.83124 12.61544 12286 ft 358 kts 318°
2026-05-05 20:45 41.85034 12.59374 11925 ft 356 kts 318°
2026-05-05 20:45 41.86905 12.57248 11496 ft 354 kts 318°
2026-05-05 20:46 41.88766 12.55132 11043 ft 351 kts 318°
2026-05-05 20:46 41.90619 12.53022 10581 ft 348 kts 317°
2026-05-05 20:46 41.92437 12.50952 10413 ft 335 kts 317°
2026-05-05 20:46 41.94172 12.48974 10302 ft 321 kts 317°
2026-05-05 20:47 41.95853 12.47054 10201 ft 308 kts 317°
2026-05-05 20:47 41.97432 12.45250 10114 ft 295 kts 317°
2026-05-05 20:47 41.98972 12.43489 9951 ft 287 kts 317°
2026-05-05 20:47 42.00477 12.41762 9614 ft 285 kts 317°
2026-05-05 20:48 42.01993 12.40023 9289 ft 284 kts 317°
2026-05-05 20:48 42.03490 12.38305 8975 ft 282 kts 317°
2026-05-05 20:48 42.04966 12.36614 8669 ft 280 kts 317°
2026-05-05 20:48 42.06434 12.34928 8370 ft 278 kts 316°
2026-05-05 20:49 42.07921 12.33214 8066 ft 276 kts 316°
2026-05-05 20:49 42.09372 12.31535 7775 ft 274 kts 316°
2026-05-05 20:49 42.10815 12.29871 7472 ft 273 kts 316°
2026-05-05 20:49 42.12250 12.28232 7177 ft 271 kts 316°
2026-05-05 20:50 42.13698 12.26579 6881 ft 269 kts 316°
2026-05-05 20:50 42.15127 12.24941 6596 ft 267 kts 316°
2026-05-05 20:50 42.16535 12.23321 6318 ft 265 kts 316°
2026-05-05 20:50 42.17900 12.21748 6245 ft 253 kts 316°
2026-05-05 20:51 42.19205 12.20246 6212 ft 240 kts 316°
2026-05-05 20:51 42.20463 12.18792 6178 ft 239 kts 315°
2026-05-05 20:51 42.21665 12.17216 5959 ft 237 kts 298°
2026-05-05 20:51 42.22071 12.15195 5678 ft 223 kts 258°
2026-05-05 20:52 42.21528 12.13339 5428 ft 212 kts 227°
2026-05-05 20:52 42.20369 12.12158 5178 ft 211 kts 199°
2026-05-05 20:52 42.18913 12.11948 4923 ft 211 kts 169°
2026-05-05 20:52 42.17585 12.12742 4691 ft 214 kts 149°
2026-05-05 20:53 42.16339 12.13839 4456 ft 214 kts 150°
2026-05-05 20:53 42.15084 12.14921 4220 ft 213 kts 150°
2026-05-05 20:53 42.13846 12.15981 3999 ft 211 kts 150°
2026-05-05 20:53 42.12594 12.17051 3826 ft 212 kts 150°
2026-05-05 20:54 42.11278 12.17899 3553 ft 208 kts 173°
2026-05-05 20:54 42.09880 12.17721 3331 ft 204 kts 194°
2026-05-05 20:54 42.08483 12.17258 3097 ft 206 kts 189°
2026-05-05 20:54 42.07064 12.17109 2964 ft 199 kts 177°
2026-05-05 20:55 42.05736 12.17353 2968 ft 187 kts 168°
2026-05-05 20:55 42.04459 12.17806 2660 ft 194 kts 163°
2026-05-05 20:55 42.03149 12.18353 2247 ft 201 kts 162°
2026-05-05 20:55 42.01815 12.18926 1835 ft 207 kts 161°
2026-05-05 20:56 42.00415 12.19524 1416 ft 212 kts 161°
2026-05-05 20:56 41.99030 12.20109 1142 ft 204 kts 162°
2026-05-05 20:56 41.97731 12.20653 994 ft 186 kts 162°
2026-05-05 20:56 41.96505 12.21167 934 ft 178 kts 162°
2026-05-05 20:57 41.95389 12.21635 813 ft 162 kts 162°
2026-05-05 20:57 41.94372 12.22045 753 ft 142 kts 162°
2026-05-05 20:57 41.93464 12.22407 645 ft 132 kts 163°
2026-05-05 20:57 41.92595 12.22783 571 ft 129 kts 160°
2026-05-05 20:58 41.91742 12.23161 512 ft 129 kts 162°
2026-05-05 20:58 41.90886 12.23526 361 ft 128 kts 161°
2026-05-05 20:58 41.90044 12.23883 328 ft 127 kts 162°
2026-05-05 20:58 41.89187 12.24224 320 ft 128 kts 163°
2026-05-05 20:59 41.88336 12.24572 283 ft 128 kts 161°
2026-05-05 20:59 41.87489 12.24953 232 ft 128 kts 162°
2026-05-05 20:59 41.86632 12.25291 201 ft 128 kts 162°
2026-05-05 20:59 41.85781 12.25648 124 ft 127 kts 161°
2026-05-05 21:00 41.84938 12.26008 64 ft 127 kts 161°
2026-05-05 21:00 41.84095 12.26361 23 ft 124 kts 162°
2026-05-05 21:00 41.83382 12.26658 9 ft 85 kts 163°
2026-05-05 21:00 41.82950 12.26840 8 ft 54 kts 161°
2026-05-05 21:01 41.82623 12.26970 7 ft 42 kts 167°
2026-05-05 21:01 41.82382 12.27087 7 ft 33 kts 162°
2026-05-05 21:01 41.82163 12.27144 6 ft 30 kts 179°
2026-05-05 21:01 41.81961 12.27127 7 ft 28 kts 199°
2026-05-05 21:02 41.81778 12.27061 7 ft 26 kts 190°
2026-05-05 21:02 41.81607 12.27077 8 ft 24 kts 161°
2026-05-05 21:02 41.81452 12.27148 9 ft 22 kts 161°
2026-05-05 21:02 41.81305 12.27207 9 ft 22 kts 163°
2026-05-05 21:03 41.81156 12.27270 10 ft 22 kts 161°
2026-05-05 21:03 41.81006 12.27337 10 ft 23 kts 166°
2026-05-05 21:03 41.80845 12.27337 10 ft 23 kts 188°
2026-05-05 21:03 41.80689 12.27281 10 ft 23 kts 219°
2026-05-05 21:04 41.80620 12.27091 11 ft 23 kts 246°
2026-05-05 21:04 41.80558 12.26881 12 ft 24 kts 249°
2026-05-05 21:04 41.80499 12.26662 13 ft 25 kts 250°
2026-05-05 21:04 41.80439 12.26443 15 ft 24 kts 248°
2026-05-05 21:05 41.80381 12.26236 16 ft 23 kts 249°
2026-05-05 21:05 41.80310 12.26097 16 ft 17 kts 210°
2026-05-05 21:05 41.80204 12.26032 17 ft 16 kts 204°
2026-05-05 21:05 41.80105 12.25974 17 ft 16 kts 204°
2026-05-05 21:06 41.80002 12.25907 18 ft 17 kts 205°
2026-05-05 21:06 41.79894 12.25838 19 ft 18 kts 205°
2026-05-05 21:06 41.79776 12.25794 20 ft 18 kts 188°
2026-05-05 21:06 41.79678 12.25745 20 ft 5 kts 205°
2026-05-05 21:07 41.79644 12.25747 20 ft 6 kts 122°
2026-05-05 21:07 41.79635 12.25777 20 ft 0 kts 112°
2026-05-05 21:07 41.79632 12.25784 20 ft 1 kts 116°
2026-05-05 21:07 41.79631 12.25786 20 ft 0 kts 116°